WESTFORD NEEDLES, 2367

Orbit data source: Space-Track

WESTFORD NEEDLES, 2367 is space debris originally from a launch on Thu, 09 May 1963 UTC launched from the Air Force Western Test Range (AFWTR). Debris objects in space refer to the collection of defunct objects orbiting the Earth. Examples of debris include non-operational satellites, rocket bodies, and fragments generated from explosions, collisions, or faulty payload assembly.

Loading next visibility...
Identifier
2367, 1963-014S
Orbit
Active
Country
Flag of USUS
Related business
Manufacturer
Unknown
Mission
Spacecraft
Bus & Motor
Unknown
Mass
Unknown
Launch date (UTC)
1963-05-09 (62 years ago)
Launch vehicle
Unknown
Launch site
Air Force Western Test Range (AFWTR)
Object type
Payload
Rocket body
Debris
Shape & HBR
Unknown shape, 0.2 m
Radar Cross Section
Medium (>0.1 m² and <1 m²)

Expand to show TLE details & history
Last TLE update: 3 days ago

TLE from 3 days ago
0 WESTFORD NEEDLES
1 02367U 63014S   25284.04589661  .00000017  00000-0  00000-0 0  9990
2 02367  84.5500 124.4618 2809748  58.7577 325.8619  8.94853405989573
Epoch: 2025-10-11T01:06Z
TLE epoch observation values (Epoch: 2025-10-11T01:06:05.467Z)
Latitude
-0.00001°
Longitude
88.05601°
Altitude
1,499.045 km
Speed
7.782 km/s
True Right ascension
08h 17m 50s
True Declination
0° 00' 00"
Sunlit
Object was in daylight at epoch
Visualization orbit readout
Latitude
Unknown
Longitude
Unknown
Altitude
Unknown
Speed
Unknown
Apparent Right ascension
Unknown
Apparent Declination
Unknown
Sunlit
N/A
Visualization observer readout
Local Sidereal Time
18:35:51
Azimuth
Unknown
Elevation
Unknown
Doppler factor
Unknown
Orbital elements
Apogee altitude
6,172.483 km
Perigee altitude
666.663 km
Semi-major axis
9,797.71 km
Eccentricity
0.28097
Inclination
84.55°
RAAN
124.4618°
Arg. of periapsis
58.7577°
True anomaly
301.34891°
Mean anomaly
325.8619°
Eccentric anomaly
314.35002°
Mean motion
2.23798 °/min
Orbital period
160.86 mins
BSTAR
0

Documentation

Showing up to 5 results
|